Terminal Aerodrome Forecast
Issued by NWS Pittsburgh, PA

Current Version | Previous Version | Graphics & Text | Print | Product List | Glossary On
Versions: 1 2 3 4 5 6 7 8 9 10 11 12 13 14 15 16 17 18 19 20 21 22 23 24 25 26 27 28
000
FTUS41 KPBZ 151419 AAA
TAFPIT
TAF AMD
KPIT 151419Z 1514/1618 21012KT P6SM SCT040 WS020/24040KT
     FM151500 22015G25KT P6SM BKN025
     FM152100 25020G30KT 5SM -SHRA OVC035
     FM152300 29015G25KT P6SM VCSH BKN025
     FM160400 30012KT P6SM BKN025
     FM161500 31012KT P6SM BKN035=

USA.gov is the U.S. government's official web portal to all federal, state and local government web resources and services.